Vorticity
6 3 3 6 6 5 5 9 7 13 9 8 5 11 10 10 11 10 11 11 12 11
5 1 3 8 5 8 5 7 9 13 9 6 6 12 10 11 10 11 11 10 8 6
3 -1 6 4 8 5 4 6 10 12 10 7 8 12 11 11 10 8 7 7 7 6
-0 3 4 5 4 6 4 5 11 13 10 6 9 13 10 11 8 7 8 9 8 6
0 2 4 2 4 6 5 6 11 13 9 7 11 13 10 10 8 10 11 7 5 9
-0 4 3 2 4 8 6 5 12 13 8 8 13 11 11 9 10 10 8 6 8 8
1 4 5 3 5 8 5 8 14 12 6 12 13 11 11 10 9 8 8 7 6 8
5 6 3 1 10 6 7 13 16 8 9 12 12 11 11 9 8 10 8 5 6 9
0 -2 1 8 8 7 14 13 11 8 11 12 12 10 9 9 10 10 5 5 6 8
3 3 3 8 8 12 12 12 7 11 10 12 11 10 9 10 11 7 4 5 8 9
5 4 9 9 10 11 14 8 8 11 12 12 11 10 9 11 10 7 5 6 8 8
7 8 10 11 12 13 11 8 8 12 14 12 10 9 10 11 10 6 5 7 7 6
8 10 10 11 10 11 9 8 11 13 12 10 10 9 10 10 8 5 5 6 7 6
10 11 10 10 12 9 9 10 12 10 12 12 8 9 11 9 8 6 4 6 6 5
Height
3056 3059 3061 3061 3061 3061 3061 3060 3056 3055 3053 3049 3045 3043 3039 3036 3035 3032 3032 3030 3027 3024
3051 3054 3056 3055 3056 3056 3057 3054 3050 3050 3046 3043 3042 3038 3035 3033 3032 3030 3029 3027 3025 3022
3045 3047 3049 3050 3051 3051 3050 3048 3046 3044 3042 3038 3036 3034 3032 3029 3029 3028 3027 3024 3023 3020
3039 3041 3043 3044 3044 3045 3044 3042 3040 3038 3037 3033 3031 3030 3029 3027 3025 3025 3023 3021 3020 3017
3034 3036 3037 3037 3039 3038 3038 3037 3033 3033 3031 3029 3027 3026 3026 3024 3022 3021 3020 3019 3017 3015
3025 3029 3031 3031 3031 3032 3032 3029 3028 3027 3026 3024 3023 3023 3021 3020 3019 3018 3018 3016 3015 3013
3017 3023 3025 3024 3024 3025 3026 3023 3022 3022 3021 3020 3019 3019 3017 3016 3015 3015 3015 3013 3012 3011
3012 3015 3017 3018 3018 3019 3019 3017 3017 3017 3015 3015 3015 3014 3013 3013 3013 3012 3012 3011 3009 3008
3003 3005 3009 3011 3012 3012 3012 3011 3011 3012 3010 3010 3009 3009 3009 3009 3009 3009 3009 3008 3006 3004
2993 2999 3003 3004 3006 3006 3006 3006 3006 3007 3005 3004 3004 3005 3005 3005 3005 3006 3005 3005 3002 3001
2988 2994 2996 2998 2999 3000 3000 3001 3001 3002 3001 2999 3000 3000 3001 3001 3002 3002 3001 3001 2999 2997
2983 2987 2989 2991 2992 2993 2994 2995 2994 2997 2997 2995 2995 2996 2996 2997 2998 2998 2998 2996 2995 2993
2978 2980 2983 2984 2986 2988 2989 2991 2989 2991 2992 2990 2991 2991 2992 2993 2993 2995 2995 2992 2991 2988
2971 2974 2976 2978 2980 2982 2984 2985 2985 2984 2987 2985 2986 2986 2988 2988 2989 2990 2990 2989 2987 2985